N1YZ Weather Reports


time (UTC)temp
C
wind
direction
speed
KPH
gust
KPH
rain 1hr
cm
rain 24hr
cm
rain mn
cm
humidity
%
barometer
mb
20260503173656 21 332 0.0 0.0 0.00 0.00 0.00 37 1040.5
20260503173152 21 138 0.0 1.6 0.00 0.00 0.00 38 1040.9
20260503172649 21 161 3.2 3.2 0.00 0.00 0.00 39 1040.9
20260503172147 20 168 0.0 1.6 0.00 0.00 0.00 42 1041.0
20260503171643 20 6 0.0 0.0 0.00 0.00 0.00 41 1041.2
20260503171141 20 181 1.6 3.2 0.00 0.00 0.00 38 1040.9
20260503170637 20 154 0.0 3.2 0.00 0.00 0.00 36 1041.2
20260503170135 20 9 0.0 0.0 0.00 0.00 0.00 40 1041.3
20260503150526 17 221 0.0 0.0 0.00 0.00 0.00 52 1041.6
20260503131419 10 12 0.0 0.0 0.00 0.00 0.00 85 1041.3
20260503130915 10 40 0.0 0.0 0.00 0.00 0.00 85 1041.3
20260503130413 10 168 0.0 0.0 0.00 0.00 0.00 86 1041.4
20260503110812 6 357 0.0 0.0 0.00 0.00 0.00 95 1040.1
20260503110309 6 357 0.0 0.0 0.00 0.00 0.00 94 1040.0
20260503100235 7 356 0.0 0.0 0.00 0.00 0.00 91 1039.4
20260503090154 8 356 0.0 0.0 0.00 0.00 0.00 88 1039.2
20260503081624 9 355 0.0 0.0 0.00 0.00 0.00 81 1039.1
20260503081121 10 355 0.0 0.0 0.00 0.00 0.00 82 1038.9
20260503080617 10 355 0.0 0.0 0.00 0.00 0.00 81 1039.0
20260503080114 10 355 0.0 0.0 0.00 0.00 0.00 81 1039.0
20260503072551 10 354 0.0 0.0 0.00 0.00 0.00 81 1038.8
20260503072048 10 354 0.0 0.0 0.00 0.00 0.00 82 1038.6
20260503071544 10 354 0.0 0.0 0.00 0.00 0.00 83 1038.4
20260503071042 10 354 0.0 0.0 0.00 0.00 0.00 84 1038.7
20260503070538 10 354 0.0 0.0 0.00 0.00 0.00 84 1038.5
20260503054951 9 1 0.0 0.0 0.00 0.00 0.00 86 1038.2
20260503054447 10 1 0.0 0.0 0.00 0.00 0.00 85 1038.3
20260503053945 10 1 0.0 0.0 0.00 0.00 0.00 84 1038.2
20260503053443 10 1 0.0 0.0 0.00 0.00 0.00 82 1038.4
20260503052939 10 1 0.0 0.0 0.00 0.00 0.00 84 1038.2
20260503052437 10 1 0.0 0.0 0.00 0.00 0.00 84 1038.1
20260503051933 10 1 0.0 0.0 0.00 0.00 0.00 84 1037.9
20260503051429 10 1 0.0 0.0 0.00 0.00 0.00 84 1037.9
20260503050926 10 1 0.0 0.0 0.00 0.00 0.00 84 1037.5
20260503050422 10 1 0.0 0.0 0.00 0.00 0.00 82 1037.8
20260503045920 10 1 0.0 0.0 0.00 0.05 0.05 82 1037.7
20260503045417 10 1 0.0 0.0 0.00 0.05 0.05 82 1037.6
20260503044914 10 1 0.0 0.0 0.00 0.05 0.05 81 1037.6
20260503044411 10 1 0.0 0.0 0.00 0.05 0.05 81 1037.7
20260503043908 10 1 0.0 0.0 0.00 0.05 0.05 81 1037.6
20260503043405 10 1 0.0 0.0 0.00 0.05 0.05 81 1037.6
20260503042901 11 1 0.0 0.0 0.00 0.05 0.05 82 1037.6
20260503042358 11 1 0.0 0.0 0.00 0.05 0.05 81 1037.4
20260503041854 11 1 0.0 0.0 0.00 0.05 0.05 80 1037.1
20260503041351 11 1 0.0 0.0 0.00 0.05 0.05 80 1037.3
20260503040849 11 1 0.0 0.0 0.00 0.05 0.05 79 1037.3
20260503040346 11 1 0.0 0.0 0.00 0.05 0.05 76 1037.3
20260503035843 11 1 0.0 0.0 0.00 0.05 0.05 77 1037.3
20260503035340 11 1 0.0 0.0 0.00 0.05 0.05 77 1037.2
20260503034837 11 1 0.0 0.0 0.00 0.05 0.05 77 1037.3
20260503034335 11 1 0.0 0.0 0.00 0.05 0.05 77 1037.4
20260503033832 11 1 0.0 0.0 0.00 0.05 0.05 76 1037.2
20260503033329 11 1 0.0 0.0 0.00 0.05 0.05 75 1037.2
20260503032827 11 1 0.0 0.0 0.00 0.05 0.05 72 1037.3
20260503032326 11 1 0.0 0.0 0.00 0.05 0.05 74 1037.4
20260503031823 12 1 0.0 0.0 0.00 0.05 0.05 73 1037.2
20260503031320 12 1 0.0 0.0 0.00 0.05 0.05 72 1037.4
20260503030816 12 1 0.0 0.0 0.00 0.05 0.05 70 1037.3
20260503030313 12 1 0.0 0.0 0.00 0.05 0.05 69 1037.2
20260503025810 12 1 0.0 0.0 0.00 0.05 0.05 69 1037.3
20260503025308 12 1 0.0 0.0 0.00 0.05 0.05 69 1037.1
20260503024804 12 1 0.0 0.0 0.00 0.05 0.05 69 1037.2
20260503024301 12 1 0.0 0.0 0.00 0.05 0.05 66 1037.1
20260503023758 12 1 0.0 0.0 0.00 0.05 0.05 63 1037.1
20260503023255 12 1 0.0 0.0 0.00 0.05 0.05 63 1037.1
20260503022751 12 1 0.0 0.0 0.00 0.05 0.05 69 1037.1
20260503022250 12 1 0.0 0.0 0.00 0.05 0.05 69 1037.0
20260503021748 12 1 0.0 0.0 0.00 0.05 0.05 67 1037.0
20260503021243 12 1 0.0 0.0 0.00 0.05 0.05 68 1036.9
20260503020742 12 1 0.0 0.0 0.00 0.05 0.05 66 1036.9
20260503020239 12 1 0.0 0.0 0.00 0.05 0.05 65 1036.8
20260503015735 12 1 0.0 0.0 0.00 0.05 0.05 66 1036.7
20260503015232 12 1 0.0 0.0 0.00 0.05 0.05 64 1036.6
20260503014728 13 1 0.0 0.0 0.00 0.05 0.05 64 1036.5
20260503014226 13 1 0.0 0.0 0.00 0.05 0.05 64 1036.4
20260503013723 13 1 0.0 0.0 0.00 0.05 0.05 62 1036.2
20260503013221 13 1 0.0 0.0 0.00 0.05 0.05 61 1036.4
20260503012718 13 1 0.0 0.0 0.00 0.05 0.05 60 1036.1
20260503012215 13 1 0.0 0.0 0.00 0.05 0.05 60 1035.9
20260503011711 13 1 0.0 0.0 0.00 0.05 0.05 62 1036.1
20260503011209 13 1 0.0 0.0 0.00 0.05 0.05 59 1036.1
20260503010704 13 1 0.0 0.0 0.00 0.05 0.05 59 1035.9
20260503010202 13 1 0.0 0.0 0.00 0.05 0.05 57 1035.8
20260503005659 14 1 0.0 0.0 0.00 0.05 0.05 57 1035.9
20260503005157 14 1 0.0 0.0 0.00 0.05 0.05 55 1035.9
20260503004653 15 1 0.0 0.0 0.00 0.05 0.05 54 1035.8
20260503004151 15 1 0.0 0.0 0.00 0.05 0.05 53 1035.8
20260503003648 15 1 0.0 0.0 0.00 0.05 0.05 53 1035.5
20260503003145 15 1 0.0 0.0 0.00 0.05 0.05 51 1035.4
20260503002641 15 1 0.0 0.0 0.00 0.05 0.05 52 1035.5
20260503002138 15 1 0.0 0.0 0.00 0.05 0.05 52 1035.4
20260503001634 16 1 0.0 0.0 0.00 0.05 0.05 52 1035.4
20260503001131 16 1 0.0 0.0 0.00 0.05 0.05 51 1035.3
20260503000629 16 1 0.0 0.0 0.00 0.05 0.05 52 1035.2
20260503000126 16 1 0.0 0.0 0.00 0.05 0.05 52 1035.1
20260502235622 16 1 0.0 0.0 0.00 0.05 0.05 48 1035.0
20260502235121 16 1 0.0 0.0 0.00 0.05 0.05 48 1035.2
20260502234616 17 1 0.0 0.0 0.00 0.05 0.05 51 1034.7
20260502234115 17 28 0.0 0.0 0.00 0.05 0.05 52 1034.6
20260502233610 17 3 0.0 0.0 0.00 0.05 0.05 55 1034.7
20260502233107 17 351 0.0 0.0 0.00 0.05 0.05 52 1034.7
20260502232603 17 43 0.0 0.0 0.00 0.05 0.05 51 1034.7
20260502232101 17 54 0.0 0.0 0.00 0.05 0.05 53 1034.6
20260502231557 17 78 0.0 0.0 0.00 0.05 0.05 53 1034.6
20260502231055 17 19 0.0 0.0 0.00 0.05 0.05 48 1035.0
20260502230553 18 44 0.0 0.0 0.00 0.05 0.05 45 1034.7
20260502230051 18 12 0.0 0.0 0.00 0.05 0.05 45 1034.7
20260502225546 18 104 0.0 0.0 0.00 0.05 0.05 47 1034.6
20260502225044 18 49 0.0 0.0 0.00 0.05 0.05 44 1034.5
20260502224540 18 183 0.0 0.0 0.00 0.05 0.05 44 1034.5
20260502224037 18 180 3.2 3.2 0.00 0.05 0.05 45 1034.6
20260502223535 18 344 0.0 0.0 0.00 0.05 0.05 47 1034.7
20260502223033 18 22 0.0 0.0 0.00 0.05 0.05 47 1034.5
20260502222530 19 125 1.6 3.2 0.00 0.05 0.05 43 1034.7
20260502222026 19 169 3.2 4.8 0.00 0.05 0.05 40 1034.5
20260502221522 19 53 0.0 0.0 0.00 0.05 0.05 45 1034.6
20260502221020 19 139 1.6 3.2 0.00 0.05 0.05 49 1034.5
20260502220515 20 29 3.2 3.2 0.00 0.05 0.05 42 1034.7
20260502220012 21 11 0.0 0.0 0.00 0.05 0.05 42 1034.5
20260502215509 21 173 3.2 3.2 0.00 0.05 0.05 38 1034.4
20260502215006 20 168 1.6 3.2 0.00 0.05 0.05 40 1034.6
20260502214503 20 162 1.6 3.2 0.00 0.05 0.05 42 1034.4
20260502214000 20 92 1.6 1.6 0.00 0.05 0.05 44 1034.4
20260502213456 20 204 0.0 0.0 0.00 0.05 0.05 43 1034.3
20260502212955 20 158 0.0 3.2 0.00 0.05 0.05 40 1034.2
20260502212453 20 188 1.6 1.6 0.00 0.05 0.05 37 1034.1
20260502211950 20 169 0.0 1.6 0.00 0.05 0.05 40 1034.4
20260502211446 20 170 3.2 4.8 0.00 0.05 0.05 40 1034.5
20260502210944 20 154 1.6 3.2 0.00 0.05 0.05 39 1034.3
20260502210440 20 14 0.0 0.0 0.00 0.05 0.05 43 1034.3
20260502205938 20 109 1.6 3.2 0.00 0.05 0.05 43 1034.3
20260502205434 20 162 1.6 3.2 0.00 0.05 0.05 40 1034.4
20260502204931 20 55 0.0 0.0 0.00 0.05 0.05 47 1034.4
20260502204428 20 172 1.6 1.6 0.00 0.05 0.05 41 1034.6
20260502203926 20 86 1.6 1.6 0.00 0.05 0.05 38 1034.5
20260502203423 20 55 0.0 1.6 0.00 0.05 0.05 39 1034.5
20260502202919 21 161 3.2 3.2 0.00 0.05 0.05 38 1034.4
20260502202416 20 106 0.0 0.0 0.00 0.05 0.05 40 1034.7
20260502201914 20 68 1.6 1.6 0.00 0.05 0.05 38 1034.5
20260502201409 20 194 4.8 4.8 0.00 0.05 0.05 35 1034.6
20260502200907 20 31 0.0 0.0 0.00 0.05 0.05 40 1034.6
20260502200402 20 72 0.0 0.0 0.00 0.05 0.05 40 1034.6
20260502195901 20 339 0.0 0.0 0.00 0.05 0.05 38 1034.8
20260502195357 20 174 4.8 6.4 0.00 0.05 0.05 36 1034.7
20260502194853 21 181 3.2 4.8 0.00 0.05 0.05 38 1034.7
20260502194350 20 62 0.0 0.0 0.00 0.05 0.05 39 1034.4
20260502193846 21 334 3.2 3.2 0.00 0.05 0.05 43 1034.5
20260502193344 21 54 3.2 3.2 0.00 0.05 0.05 40 1034.3
20260502192839 21 8 0.0 0.0 0.00 0.05 0.05 45 1034.6
20260502192336 21 342 0.0 0.0 0.00 0.05 0.05 42 1034.5
20260502191833 21 9 0.0 0.0 0.00 0.05 0.05 43 1034.5
20260502191331 21 349 0.0 0.0 0.00 0.05 0.05 41 1034.5
20260502190828 21 63 0.0 0.0 0.00 0.05 0.05 38 1034.6
20260502190326 21 13 1.6 1.6 0.00 0.05 0.05 45 1034.6
20260502185821 21 357 3.2 4.8 0.00 0.05 0.05 35 1034.6
20260502185317 20 22 1.6 3.2 0.00 0.05 0.05 46 1035.1
20260502184814 20 171 4.8 4.8 0.00 0.05 0.05 39 1034.7
20260502184310 21 182 1.6 1.6 0.00 0.05 0.05 41 1034.7
20260502183807 21 26 0.0 0.0 0.00 0.05 0.05 44 1034.8
20260502183303 21 346 0.0 1.6 0.00 0.05 0.05 36 1034.8
20260502182758 21 169 0.0 1.6 0.00 0.05 0.05 38 1035.3
20260502182253 20 29 3.2 3.2 0.00 0.05 0.05 36 1035.3
20260502181749 20 344 1.6 1.6 0.00 0.05 0.05 46 1035.2
20260502181244 20 105 3.2 4.8 0.00 0.05 0.05 42 1035.2
20260502180741 20 34 1.6 1.6 0.00 0.05 0.05 42 1035.4
20260502180238 20 71 1.6 3.2 0.00 0.05 0.05 43 1035.3